Columbus, OH

6:56 PM EST on February 17, 2018 (GMT -0500)
Port Columbus International

Weather History for KCMH - June, 2013

Change the Weather History Date:

Sunday, June 16, 2013

  Actual Average Record
Temperature  
Mean Temperature 74 °F 72 °F  
Max Temperature 79 °F 82 °F 96 °F (1957)
Min Temperature 69 °F 62 °F 43 °F (1969)
Degree Days  
Heating Degree Days 0 0  
Month to date heating degree days 6 18  
Since 1 June heating degree days 6 18  
Since 1 July heating degree days 5160 5245  
Cooling Degree Days 9 7  
Month to date cooling degree days 93 92  
Year to date cooling degree days 254 174  
Since 1 June cooling degree days 93 92  
Growing Degree Days 24 (Base 50)    
Moisture  
Dew Point 64 °F    
Average Humidity 74    
Maximum Humidity 90    
Minimum Humidity 58    
Precipitation  
Precipitation 0.02 in 0.13 in 1.73 in (1997)
Month to date precipitation 3.13 2.19  
Year to date precipitation 15.60 17.76  
Snow  
Snow 0.00 in 0.00 in 0.00 in ()
Month to date snowfall 0.0 0.0  
Since 1 June snowfall 0.0 0.0  
Since 1 July snowfall 41.2 26.7  
Snow Depth 0.00 in    
Sea Level Pressure  
Sea Level Pressure 29.95 in    
Wind  
Wind Speed 10 mph (SW)    
Max Wind Speed 20 mph    
Max Gust Speed 28 mph    
Visibility 10 miles    
Events Rain    
T = Trace of Precipitation, MM = Missing Value Source: NWS Daily Summary

Daily Weather History Graph

Daily Weather History Graph

Search for Another Location

Airport or City:

Trip Planner

Search our weather history database for the weather conditions in past years. The results will help you decide how hot, cold, wet, or windy it might be!

Date:

Astronomy

Jun. 16, 2013 Rise Set
Actual Time 6:02 AM EDT 9:02 PM EDT
Civil Twilight 5:29 AM EDT 9:35 PM EDT
Nautical Twilight 4:47 AM EDT 10:17 PM EDT
Astronomical Twilight 3:59 AM EDT 11:05 PM EDT
Moon 1:36 PM EDT (6/16) 1:06 AM EDT (6/16)
Length of Visible Light 16h 06m
Length of Day
15h 00m
Waxing Crescent, 49% of the Moon is Illuminated
Jun 16
Waxing Crescent
Jun 16
First Quarter
Jun 23
Full
Jun 30
Last Quarter
Jul 8
New

Hourly Weather History & Observations

Time (EDT) Temp. Dew Point Humidity Pressure Visibility Wind Dir Wind Speed Gust Speed Precip Events Conditions
12:51 AM 73.0 °F 60.1 °F 64% 29.96 in 10.0 mi South 6.9 mph - N/A   Overcast
1:51 AM 73.0 °F 61.0 °F 66% 29.95 in 10.0 mi South 6.9 mph - N/A   Overcast
2:51 AM 72.0 °F 61.0 °F 68% 29.94 in 10.0 mi SSW 8.1 mph - N/A   Overcast
3:51 AM 72.0 °F 62.1 °F 71% 29.93 in 10.0 mi SSW 9.2 mph - N/A   Overcast
4:51 AM 71.1 °F 62.1 °F 73% 29.92 in 10.0 mi South 6.9 mph - N/A   Overcast
5:51 AM 71.1 °F 64.0 °F 78% 29.94 in 10.0 mi WSW 6.9 mph - 0.01 in Rain Light Rain
6:51 AM 72.0 °F 64.0 °F 76% 29.94 in 10.0 mi Calm Calm - 0.00 in   Overcast
7:51 AM 70.0 °F 66.0 °F 87% 29.96 in 10.0 mi SSW 6.9 mph - 0.00 in   Mostly Cloudy
8:51 AM 72.0 °F 66.0 °F 81% 29.96 in 10.0 mi SW 4.6 mph - 0.00 in Rain Light Rain
9:51 AM 72.0 °F 64.0 °F 76% 29.96 in 10.0 mi WSW 12.7 mph - 0.00 in Rain Light Rain
10:51 AM 72.0 °F 64.9 °F 78% 29.96 in 10.0 mi SW 16.1 mph - 0.01 in   Overcast
11:51 AM 73.0 °F 64.9 °F 76% 29.96 in 10.0 mi SW 16.1 mph 19.6 mph N/A   Overcast
12:05 PM 71.6 °F 64.4 °F 78% 29.98 in 10.0 mi SW 15.0 mph 24.2 mph 0.00 in Rain Light Rain
12:25 PM 71.6 °F 66.2 °F 83% 29.98 in 10.0 mi SW 12.7 mph - 0.00 in Rain Light Rain
12:51 PM 72.0 °F 66.0 °F 81% 29.96 in 10.0 mi SW 12.7 mph - 0.00 in Rain Light Rain
1:51 PM 73.0 °F 64.0 °F 73% 29.95 in 10.0 mi SW 11.5 mph - 0.00 in   Overcast
2:51 PM 73.9 °F 64.0 °F 71% 29.96 in 10.0 mi SW 17.3 mph 24.2 mph 0.00 in   Overcast
3:51 PM 78.1 °F 63.0 °F 60% 29.95 in 10.0 mi WSW 16.1 mph 27.6 mph N/A   Mostly Cloudy
4:51 PM 78.1 °F 64.0 °F 62% 29.94 in 10.0 mi SW 17.3 mph - N/A   Mostly Cloudy
5:51 PM 78.1 °F 64.9 °F 64% 29.93 in 10.0 mi WSW 11.5 mph - N/A   Overcast
6:51 PM 78.1 °F 64.9 °F 64% 29.92 in 10.0 mi WSW 13.8 mph 19.6 mph N/A   Overcast
7:51 PM 77.0 °F 64.9 °F 66% 29.93 in 10.0 mi WSW 12.7 mph - N/A   Overcast
8:51 PM 75.9 °F 64.9 °F 69% 29.93 in 10.0 mi SW 13.8 mph 19.6 mph N/A   Mostly Cloudy
9:51 PM 73.9 °F 64.9 °F 73% 29.94 in 10.0 mi SW 9.2 mph - N/A   Mostly Cloudy
10:51 PM 72.0 °F 64.9 °F 78% 29.95 in 10.0 mi SSW 5.8 mph - N/A   Mostly Cloudy
11:51 PM 71.1 °F 64.9 °F 81% 29.95 in 10.0 mi SW 4.6 mph - N/A   Scattered Clouds